COSMOS 2228

Last updated on Wed Sep 17 2025 00:02:15 GMT+0000 (Coordinated Universal Time)

1 22286U 92094A 25259.56198921 .00002690 00000+0 23630-3 0 9991 2 22286 82.5179 43.8917 0018749 164.3718 195.8087 14.96088140750017
UTC large
Height (km)
Speed (km/s)
/
Latitude / Longitude
Inclination (degrees)
Orbital Period (minutes)
Azimuth
Elevation
Range (km)
Doppler Factor

Next 0 passes for location: London (51.5072 / 0.1276)

Sorry there are no passes over London.